Regional Weather Roundup
Issued by NWS

Home | Current Version | Previous Version | Graphics & Text | Print | Product List | Glossary On
Versions: 1 2 3 4 5 6 7 8 9 10 11 12 13 14 15 16 17 18 19 20 21 22 23 24 25 26 27 28 29 30 31 32 33 34 35 36 37 38 39 40 41 42 43 44 45 46 47 48 49
000
ASUS43 KDMX 270807
RWRIA

WEATHER ROUNDUP FOR IOWA
NATIONAL WEATHER SERVICE DES MOINES IA
300 AM CDT THU AUG 27 2015

NOTE: "FAIR" INDICATES FEW OR NO CLOUDS BELOW 12,000 FEET WITH NO
SIGNIFICANT WEATHER AND/OR OBSTRUCTIONS TO VISIBILITY.

* - THESE STATIONS ARE NOT NWS STATIONS...THUS NOT UNDER NWS
QUALITY CONTROL.  THEY ALSO DO NOT REPORT WEATHER SUCH
AS PRECIPITATION OR FOG.

IAZ001>003-012>014-020>022-031>034-043>046-270900-
   NORTHWEST IOWA

CITY           SKY/WX    TMP DP  RH WIND       PRES   REMARKS
CARROLL *      CLOUDY    55  54  94 S5        30.08S
CHEROKEE *     CLEAR     57  55  94 S3        30.07F
DENISON *      MOCLDY    61  54  77 SE7G13    30.05F
LE MARS *      CLEAR     63  61  94 S5        30.06S
ORANGE CITY *  CLEAR     61  57  88 SE5       30.06R
SHELDON *      CLOUDY    59  55  88 VRB6      30.05S
SIOUX CITY     MOCLDY    61  57  87 SE6       30.04S
SPENCER        CLEAR     55  51  86 S5        30.08F
STORM LAKE *   CLEAR     57  55  94 S6        30.08F
$$

IAZ055>058-069>071-079>083-090>094-270900-
   SOUTHWEST IOWA

CITY           SKY/WX    TMP DP  RH WIND       PRES   REMARKS
ATLANTIC *     MOCLDY    57  54  88 CALM      30.08F
AUDUBON *      CLEAR     54  50  87 CALM      30.10S
CLARINDA *     CLEAR     59  55  88 CALM      30.10S
COUNCIL BLFS * PTCLDY    64  59  82 SE8       30.06F
CRESTON *      CLEAR     57  54  88 SE7       30.11S
HARLAN  *      CLEAR     57  57 100 CALM      30.10F
LAMONI         CLEAR     62  55  77 SE7       30.10F
RED OAK *      PTCLDY    61  55  82 S3        30.07F
SHENANDOAH *   CLEAR     63  59  88 SE5       30.07F
$$

IAZ047>049-059>061-072>074-084-270900-
   CENTRAL IOWA

CITY           SKY/WX    TMP DP  RH WIND       PRES   REMARKS
AMES           PTCLDY    53  52  96 SE5       30.09F
ANKENY *       CLEAR     54  54 100 CALM      30.10F
CHARITON *     MOCLDY    57  54  88 SE5       30.11S
DES MOINES     CLEAR     60  53  77 SE7       30.09F
GRINNELL*      CLEAR     57  52  82 SE5       30.12F
KNOXVILLE *    CLEAR     57  54  88 S7        30.10F
MARSHALLTOWN   CLEAR     54  52  93 SE5       30.11F
PELLA *        CLEAR     57  57 100 SE6       30.12F
PERRY *          N/A     55  54  94 CALM      30.10S
$$

IAZ004>006-015-016-023>025-035-036-270900-
   NORTH CENTRAL IOWA

CITY           SKY/WX    TMP DP  RH WIND       PRES   REMARKS
ALGONA *       CLOUDY    59  54  82 S9        30.10R
CLARION *      CLEAR     55  52  88 CALM      30.11R
ESTHERVILLE    PTCLDY    55  53  93 S6        30.08S
FORT DODGE *   PTCLDY    57  52  82 SE3       30.10S
MASON CITY     PTCLDY    52  51  97 CALM      30.12F
FOREST CITY *  CLOUDY    52  52 100 E3        30.11S
IOWA FALLS *     N/A     55  52  88 SE3       30.12S
$$

IAZ007>011-017>019-026>030-037>042-050>054-066-270900-
   NORTHEAST IOWA

CITY           SKY/WX    TMP DP  RH WIND       PRES   REMARKS
CEDAR RAPIDS   CLEAR     54  54 100 CALM      30.12F
CHARLES CITY * CLEAR     54  54 100 SE3       30.12F
CLINTON *      CLEAR     57  54  88 SE7       30.17F
DECORAH *      CLOUDY    55  50  82 CALM      30.12F
DUBUQUE        CLEAR     57  55  93 S5        30.15S
MONTICELLO *   CLEAR     50  48  93 CALM      30.13S
OELWEIN *      CLEAR     52  52 100 SE7       30.12F
WATERLOO       CLEAR     52  50  93 CALM      30.11F
$$

IAZ064-065-067-068-078-270900-
   EAST CENTRAL IOWA

CITY           SKY/WX    TMP DP  RH WIND       PRES   REMARKS
DAVENPORT      CLEAR     56  54  93 SE6       30.15F
IOWA CITY      CLEAR     55  53  93 CALM      30.14S
MT. PLEASANT * CLEAR     57  54  88 SE5       30.13F
MUSCATINE *    CLEAR     54  52  94 CALM      30.14S
QUAD CITIES    CLEAR     57  54  89 E3        30.15S
$$

IAZ062-063-075>077-085>089-095>099-270900-
   SOUTHEAST IOWA

CITY           SKY/WX    TMP DP  RH WIND       PRES   REMARKS
BURLINGTON     CLEAR     59  56  89 S5        30.14S
FAIRFIELD *    CLEAR     55  52  88 SE5       30.12F
FORT MADISON * CLEAR     61  55  82 S7        30.15S
KEOKUK *       CLEAR     59  55  88 SE5       30.13F
OSKALOOSA *      N/A     54  52  94 SE5       30.12S
CENTERVILLE *  CLEAR     55  54  94 SE3       30.12F
OTTUMWA        CLEAR     53  51  93 SE3       30.11S
WASHINGTON *     N/A    N/A N/A N/A MISG        N/A
$$

ABBREVIATIONS USED IN REMARKS
   TC - TEMPERATURES IN CELSIUS
  WCI - WIND CHILL INDEX
   HX - HEAT INDEX
  VSB - VISIBILITY
$$



USA.gov is the U.S. government's official web portal to all federal, state and local government web resources and services.